This is the latest recevied weather packets stored in our database for station/object WX3I. If no packets are shown the sender has not sent any weather packets the latest 10 day(s).
| Time | Temp. | Humidity | Pressure | Rain* | Wind** | Luminosity | Snow |
|---|---|---|---|---|---|---|---|
| 1777780204 | 9.44° C | 53% | 1013.6 hPa | 0 mm | - | 0 W/m² | - |
| 1777776904 | 8.89° C | 51% | 1013.7 hPa | 0 mm | - | 0 W/m² | - |
| 1777776305 | 9.44° C | 51% | 1013.7 hPa | 0 mm | - | 0 W/m² | - |
| 1777772404 | 10° C | 48% | 1013.8 hPa | 0 mm | - | 0 W/m² | - |
| 1777769404 | 11.11° C | 44% | 1013.4 hPa | 0 mm | - | 0 W/m² | - |
| 1777766104 | 11.67° C | 41% | 1013 hPa | 0 mm | - | 16 W/m² | - |
| 1777764604 | 12.22° C | 39% | 1012.7 hPa | 0 mm | - | 62 W/m² | - |
| 1777763104 | 12.78° C | 38% | 1012.9 hPa | 0 mm | - | 129 W/m² | - |
| 1777761604 | 12.78° C | 36% | 1012.8 hPa | 0 mm | - | 296 W/m² | - |
| 1777760704 | 13.33° C | 38% | 1012.7 hPa | 0 mm | - | 351 W/m² | - |
| 1777758904 | 13.89° C | 37% | 1012.6 hPa | 0 mm | - | 465 W/m² | - |
| 1777755305 | 14.44° C | 39% | 1012 hPa | 0 mm | - | 701 W/m² | - |
| 1777752904 | 13.33° C | 40% | 1012.4 hPa | 0 mm | - | 851 W/m² | - |
| 1777752604 | 13.33° C | 40% | 1012.4 hPa | 0 mm | - | 869 W/m² | - |
| 1777752305 | 13.89° C | 39% | 1012.4 hPa | 0 mm | - | 886 W/m² | - |
| 1777752004 | 13.89° C | 42% | 1012.4 hPa | 0 mm | - | 903 W/m² | - |
| 1777750504 | 13.33° C | 41% | 1012.8 hPa | 0 mm | - | 983 W/m² | - |
| 1777749604 | 13.89° C | 40% | 1013.1 hPa | 0 mm | - | 1026 W/m² | - |
| 1777747504 | 13.33° C | 43% | 1013.6 hPa | 0 mm | - | 1108 W/m² | - |
| 1777745708 | 12.78° C | 45% | 1013.7 hPa | 0 mm | - | 1155 W/m² | - |
| 1777744804 | 13.33° C | 46% | 1013.9 hPa | 0 mm | - | 1170 W/m² | - |
| 1777744504 | 13.33° C | 45% | 1013.8 hPa | 0 mm | - | 1174 W/m² | - |
| 1777743004 | 12.78° C | 45% | 1014 hPa | 0 mm | - | 1183 W/m² | - |
| 1777728305 | 9.44° C | 68% | 1014.7 hPa | 0 mm | - | 548 W/m² | - |
| 1777728004 | 9.44° C | 69% | 1014.7 hPa | 0 mm | - | 528 W/m² | - |
* Rain latest hour (hover to see other rain measurements)
** Current wind speed in m/s (hover to see current wind gust speed)